Wind_Speed
15 17 18 18 19 19 19 19 20 20 19 17 17 17 17 16 15 15 15 15 16 16 17 17 19 20 20 20 20 20 20 21 21 19 19 19 16 13 12 11 11 10 10 9 8 8 9 9 9 8 8 7 7 7 7 8 8 8 7 7 7 7 6 6 5 5 5 5 5 5 5 6 6 6 6 6 5 5 5 4 4 4 4 3 3
18 19 19 19 19 19 19 18 19 20 19 18 17 17 17 17 16 15 14 15 15 16 16 17 18 19 20 19 19 20 20 21 21 19 18 18 16 13 12 11 11 10 9 9 9 8 8 8 9 9 9 9 8 8 8 8 8 9 8 8 8 8 8 8 7 6 6 5 5 4 4 5 5 5 5 5 5 5 5 4 4 4 3 3 3
21 20 19 19 19 19 19 18 18 19 20 19 18 17 17 17 16 14 14 14 15 16 16 17 18 19 19 19 19 19 19 20 20 18 17 17 16 13 12 11 11 11 10 9 9 8 8 7 8 8 9 9 9 9 9 9 9 9 8 8 8 8 8 8 7 7 6 6 5 5 4 4 4 4 4 4 5 5 4 4 3 3 3 3 2
21 20 19 18 18 19 19 19 18 19 20 20 18 17 17 17 16 14 14 14 14 15 16 17 17 18 18 18 18 19 18 19 19 18 16 16 15 14 12 11 11 11 11 10 9 8 8 8 7 8 8 9 9 10 10 9 9 9 9 8 8 8 8 7 7 7 6 6 6 6 6 5 5 4 4 4 4 4 4 3 3 3 3 2 3
20 20 19 18 18 18 18 18 18 19 19 20 19 18 17 17 16 15 14 14 14 14 15 16 17 17 18 18 18 18 17 18 18 18 16 15 15 14 12 11 11 11 11 11 10 9 8 8 8 8 8 8 9 10 10 10 10 10 10 9 8 8 7 7 7 6 6 6 6 6 6 6 6 6 5 5 4 4 4 4 4 3 3 3 3
20 20 19 18 17 18 18 18 18 19 20 20 20 18 17 16 16 15 14 13 13 13 14 15 16 17 17 17 17 17 17 17 17 17 16 16 15 14 13 12 11 10 10 10 10 9 8 8 8 8 7 7 8 9 10 10 10 11 10 10 9 8 7 7 7 6 5 5 6 6 6 7 7 7 6 6 5 5 5 5 4 4 4 3 3
20 20 19 17 17 17 17 17 18 19 20 20 20 19 17 16 15 14 14 13 13 13 14 15 15 16 16 16 17 17 16 16 16 16 16 16 15 14 13 13 12 10 9 9 9 9 8 8 8 8 7 7 7 8 9 9 10 11 11 10 10 9 8 8 7 6 6 6 5 4 6 7 7 7 6 6 5 5 5 5 5 5 5 4 4
21 20 18 16 15 16 17 17 18 19 20 20 20 19 17 16 15 14 14 13 12 13 13 14 14 15 15 15 16 16 16 16 16 15 15 16 15 14 14 13 13 11 9 8 9 8 8 8 9 9 8 7 7 7 8 9 10 10 11 10 10 10 9 8 7 6 6 6 4 4 6 6 6 6 6 6 6 5 6 5 6 6 6 5 5
20 20 17 15 15 16 16 17 19 20 21 21 20 20 17 15 14 14 13 12 12 12 13 13 14 14 14 15 15 15 15 15 15 15 15 15 15 14 14 14 13 12 10 8 8 8 7 7 8 9 9 8 7 7 7 8 8 9 10 10 10 10 10 9 8 7 7 6 5 6 5 5 5 6 6 6 6 6 6 6 6 6 6 6 6
19 19 17 16 15 16 17 18 20 21 21 21 21 20 17 15 14 14 13 13 12 12 12 13 13 14 14 14 14 14 15 15 15 15 15 15 14 14 14 14 13 13 11 9 7 7 7 7 7 8 9 9 9 8 8 8 8 8 9 10 10 10 10 10 9 8 7 6 7 6 5 4 5 5 6 6 6 6 7 6 6 6 6 6 6
18 18 17 17 17 17 18 20 21 22 22 22 21 20 17 14 14 14 13 12 12 12 12 12 13 13 14 14 14 14 14 14 14 14 14 14 14 14 14 14 14 13 12 10 8 7 7 7 7 8 9 9 9 9 9 9 8 8 8 9 10 10 10 9 9 8 7 7 7 6 5 5 5 5 6 6 6 7 7 7 7 6 6 6 6
19 18 18 19 18 18 19 21 22 23 23 23 21 20 17 14 14 14 13 12 11 11 12 12 12 13 13 14 13 13 13 14 14 14 14 13 13 13 13 14 14 14 12 11 9 7 7 6 7 7 8 9 9 10 10 10 10 9 8 8 8 9 9 9 9 9 8 8 7 7 6 5 5 5 5 6 6 7 7 7 7 7 7 6 6
21 20 21 21 20 20 21 22 23 24 24 23 22 20 17 14 14 14 13 12 11 11 11 11 12 12 13 13 13 13 13 13 13 13 13 13 12 12 13 13 14 14 13 11 10 8 7 6 6 7 8 8 9 9 10 10 11 10 9 8 8 8 8 8 9 8 8 8 7 7 6 5 5 5 5 5 6 6 7 7 7 7 7 7 7
23 23 24 23 23 24 24 24 25 26 26 24 23 20 16 14 14 14 13 11 11 11 11 11 11 12 13 13 13 13 12 12 13 13 12 12 11 11 12 13 13 14 14 12 10 9 7 6 6 6 7 8 9 9 10 11 11 11 11 10 9 8 8 8 8 8 7 7 7 6 6 5 5 5 5 5 5 6 6 6 7 7 7 8 7
27 28 27 27 27 27 27 27 27 27 27 25 23 20 17 14 14 14 13 11 11 11 11 11 11 12 13 13 13 13 12 12 12 12 12 11 10 10 11 11 12 13 13 13 11 9 8 7 6 6 6 7 8 9 10 11 12 12 12 11 10 9 9 8 8 8 7 7 7 7 6 6 6 5 5 5 5 6 6 6 7 7 7 8 8
30 31 31 32 32 32 31 30 29 28 27 26 24 20 17 14 14 14 13 11 11 10 10 11 12 13 13 14 13 13 12 12 13 12 12 11 10 10 10 10 11 11 12 13 12 11 9 7 7 6 6 7 8 9 10 11 12 12 12 12 11 10 9 8 8 9 7 7 7 7 6 6 6 6 6 6 6 6 6 7 7 7 7 7 8
34 35 36 36 36 36 34 32 31 29 28 26 23 20 16 14 14 14 12 11 10 10 10 11 12 13 14 14 13 12 12 13 13 13 12 11 9 9 10 10 10 10 11 12 12 11 10 9 9 8 7 7 8 9 10 11 11 11 11 11 11 10 10 9 8 9 8 7 7 7 7 7 7 7 7 6 6 6 6 7 7 8 8 8 8
39 40 40 40 39 38 36 34 31 29 27 25 22 18 15 13 14 13 12 11 10 10 10 11 12 13 14 14 13 13 12 13 13 13 12 11 10 9 9 10 10 10 10 11 11 11 11 10 10 9 7 6 7 8 9 10 10 10 10 10 10 9 10 9 8 8 8 8 8 8 8 8 8 8 8 7 7 6 6 6 7 7 8 8 8
41 41 41 40 39 39 36 33 31 28 26 23 19 17 14 13 14 13 12 11 10 10 10 11 12 13 14 14 13 13 13 13 13 13 13 12 11 10 9 9 10 10 10 11 11 11 11 10 10 9 7 6 7 7 9 9 10 10 10 10 9 9 9 10 10 9 8 8 9 9 9 9 9 9 9 9 8 8 7 7 7 7 7 7 8
39 39 38 37 37 36 34 31 29 26 23 20 18 16 14 13 14 13 12 11 10 10 10 10 12 13 14 14 13 13 13 13 13 13 13 13 12 11 10 9 9 10 10 10 11 11 11 10 9 9 8 7 7 8 9 9 10 10 10 10 10 10 9 9 10 10 10 8 9 10 10 10 10 9 9 10 10 10 10 9 8 8 7 8 8
34 34 34 33 33 32 30 28 25 23 21 19 17 15 13 14 14 14 13 11 10 10 9 10 11 13 14 14 13 13 13 12 12 13 13 14 13 12 10 9 8 8 9 10 10 10 10 10 9 9 8 8 8 8 9 9 10 10 11 11 11 10 10 9 8 9 10 9 9 10 10 10 10 10 10 10 10 10 11 11 10 10 9 8 8
30 30 30 30 29 27 26 24 22 21 20 18 16 14 13 14 14 14 13 11 11 11 10 10 12 13 14 13 13 13 12 12 12 13 13 14 13 12 11 9 8 7 8 8 9 9 9 9 9 8 8 8 8 9 9 10 11 11 11 11 11 11 11 10 8 8 10 10 9 10 11 11 12 11 11 11 11 11 11 12 12 12 11 10 9
27 27 27 27 25 24 23 22 21 20 18 17 15 14 14 15 15 14 13 12 12 11 11 11 12 13 13 12 12 12 12 12 12 13 13 13 13 12 11 9 8 7 7 7 7 8 8 8 8 8 8 8 9 9 10 11 12 12 12 12 12 12 11 11 9 9 10 11 10 10 11 12 12 12 12 12 12 12 12 12 13 13 12 11 11
26 26 25 24 23 21 21 20 19 18 17 16 15 14 15 15 15 15 14 13 12 12 11 12 12 12 11 11 11 11 12 12 12 13 12 12 12 11 10 9 8 8 8 7 7 7 7 8 8 8 9 9 10 10 11 12 12 13 13 13 13 12 12 11 11 10 11 12 12 12 11 11 12 13 13 13 14 14 13 13 12 13 13 12 12
25 25 24 21 21 21 20 19 18 17 17 16 15 15 15 15 16 15 15 14 13 13 12 12 12 11 10 9 10 11 12 12 13 13 12 12 12 11 10 9 9 9 9 9 8 7 7 7 7 7 8 9 10 10 11 12 12 13 13 13 13 13 13 12 12 11 10 11 12 13 12 11 11 12 14 15 16 16 15 14 13 13 13 13 12
24 23 22 21 21 20 19 18 17 17 17 16 15 16 16 16 17 16 15 14 14 13 13 13 12 10 10 10 9 10 11 12 14 14 13 13 12 11 10 9 9 10 10 9 9 8 7 7 6 6 6 7 9 9 11 12 13 13 13 13 13 13 13 13 13 12 11 11 12 13 13 13 13 13 14 16 17 17 17 15 14 13 13 13 13
24 23 22 21 20 19 18 17 17 18 17 16 16 17 18 18 18 17 16 16 15 14 14 14 12 11 11 11 10 10 11 12 13 14 14 13 12 11 11 10 9 10 10 9 8 8 8 8 7 7 7 8 9 9 10 11 12 13 13 14 14 14 14 14 15 14 12 12 13 14 14 14 14 15 15 16 17 17 17 16 15 14 13 13 12
25 22 21 20 19 19 19 18 18 17 16 16 18 19 19 19 19 17 16 16 15 15 15 14 13 13 13 11 10 10 11 12 12 12 13 13 12 11 11 11 10 9 9 9 9 9 9 9 9 9 10 10 10 10 11 11 11 12 12 12 13 15 16 16 15 14 13 14 15 15 15 15 15 16 16 16 16 16 17 17 15 14 14 13 13
24 23 21 21 21 21 20 18 17 17 17 18 20 21 20 20 18 16 17 16 16 16 16 15 15 14 13 12 12 11 12 12 12 11 11 11 11 11 12 11 9 9 8 9 9 10 10 10 11 12 12 12 13 13 13 13 13 13 12 12 12 13 15 16 16 15 14 15 16 15 15 16 16 16 17 17 16 16 16 18 17 14 14 13 13
24 22 22 22 23 23 21 18 17 18 19 21 22 21 20 18 17 17 17 17 17 17 17 16 15 15 15 14 13 12 12 13 12 11 10 10 10 10 10 9 7 7 7 8 9 9 10 10 11 12 13 14 15 15 15 15 14 14 14 14 14 14 14 15 15 16 15 15 16 16 15 16 16 16 17 17 16 16 16 18 17 13 13 13 13
24 21 21 21 22 21 19 17 18 20 21 23 22 20 18 17 17 17 18 18 18 17 17 17 16 16 16 16 15 14 13 13 12 11 10 9 9 8 7 7 6 6 7 7 8 9 9 10 11 12 13 14 15 15 16 16 16 16 16 16 16 16 16 16 16 17 17 16 16 16 15 15 16 16 16 16 16 16 16 17 16 12 12 13 13
24 22 20 20 20 18 17 17 18 20 22 22 20 18 17 17 18 18 19 18 18 18 17 17 18 18 18 17 16 15 14 13 13 12 11 9 9 8 7 7 7 7 7 8 8 9 10 10 11 12 13 14 15 15 17 17 18 18 19 18 18 17 17 17 18 18 18 17 16 17 17 17 17 17 16 15 15 16 15 15 14 11 12 13 13
25 23 20 18 18 16 14 14 16 19 20 19 17 17 17 18 19 19 19 19 18 18 18 18 19 19 19 18 18 17 16 14 13 12 11 9 8 8 8 8 7 7 7 7 8 9 10 11 11 12 13 14 15 16 17 18 19 19 20 21 21 20 19 18 18 18 19 19 18 18 19 19 18 17 17 16 15 15 14 14 13 12 12 13 14
25 21 19 17 15 14 13 13 15 17 16 15 16 17 17 18 19 19 19 19 18 18 19 19 19 18 18 18 18 18 18 16 14 12 11 9 9 9 9 8 8 7 7 8 8 9 10 11 12 12 13 14 16 17 18 18 19 20 20 21 22 22 22 21 20 19 19 20 20 19 19 20 19 18 17 17 17 15 14 13 13 13 12 13 14
25 20 18 15 15 17 16 15 14 14 14 15 17 17 17 18 19 19 19 18 18 19 20 19 18 17 17 18 19 19 19 17 14 12 11 10 9 9 9 9 8 7 8 8 9 10 10 11 12 12 13 14 15 16 18 19 19 20 21 21 22 22 23 23 23 21 20 21 21 20 20 20 20 19 17 17 17 16 14 13 13 13 13 13 14
28 23 18 15 18 19 17 15 15 14 15 16 17 17 18 18 19 20 19 18 19 20 21 20 18 17 17 19 20 19 18 17 14 12 11 11 10 10 10 9 9 8 8 9 10 10 10 11 11 12 13 14 15 16 17 18 19 20 20 21 21 22 23 23 23 23 22 22 22 21 20 21 20 19 18 18 18 16 14 13 14 14 14 14 14
29 26 23 21 21 18 15 16 16 15 15 17 18 19 19 20 21 20 19 20 20 21 22 21 19 18 18 21 22 21 20 18 15 12 11 11 10 10 10 9 9 9 9 9 10 10 10 11 12 13 14 15 16 16 17 17 18 19 20 20 21 22 22 23 23 24 24 23 23 22 21 21 21 20 19 19 18 17 16 15 14 14 15 15 15
31 28 28 27 23 18 15 17 17 16 16 18 19 20 20 21 23 21 20 22 21 22 23 22 22 21 20 22 23 24 23 18 15 12 10 10 10 10 10 9 8 8 8 9 9 10 10 11 12 13 14 15 15 16 16 17 17 19 19 19 20 21 22 23 23 24 24 24 24 23 22 21 21 21 20 20 19 18 18 17 16 15 15 16 16
34 31 29 28 24 20 17 17 18 17 18 20 21 21 20 22 24 22 22 23 22 24 24 23 23 23 22 22 24 25 20 15 13 12 10 10 9 8 8 7 7 7 7 8 9 10 10 11 12 13 13 14 15 15 16 16 17 18 19 19 19 21 21 22 23 23 24 25 25 24 23 22 21 21 20 21 21 20 19 18 17 16 16 17 18
35 32 28 26 25 22 20 20 20 19 20 22 23 23 22 22 25 24 24 23 23 24 24 23 23 23 23 21 21 21 17 12 11 11 9 8 7 6 6 7 7 7 7 8 9 10 11 11 12 13 13 14 15 15 16 16 17 19 19 19 19 21 22 22 22 23 23 24 24 24 24 23 22 22 21 21 21 21 21 20 19 18 17 18 19
32 30 26 24 24 23 21 21 21 21 22 23 24 24 24 25 26 25 25 24 22 22 24 24 25 24 22 19 17 16 14 10 9 9 8 7 7 7 7 7 8 8 8 9 9 10 11 12 12 13 14 15 15 16 16 17 18 19 20 20 20 20 21 22 23 23 23 23 24 24 24 23 23 22 21 21 21 22 22 21 20 19 18 19 20
30 27 25 24 23 23 21 20 20 21 23 24 24 24 25 27 27 26 27 25 23 23 25 26 26 25 21 19 16 13 11 7 9 10 9 8 7 7 8 8 8 9 9 10 10 11 12 12 13 14 14 15 16 16 17 17 18 18 20 21 21 21 21 22 23 23 23 23 24 25 25 24 23 23 21 20 21 22 23 23 22 20 19 19 20
30 28 26 25 23 22 21 19 19 21 23 24 24 24 26 27 26 25 27 27 27 26 25 24 24 22 21 20 17 12 9 9 10 11 10 9 8 8 8 8 9 9 10 11 11 12 13 14 14 15 15 15 16 16 17 18 18 19 19 20 21 22 22 22 23 23 23 23 23 24 24 24 24 24 23 21 20 21 23 23 23 22 20 19 19
29 27 25 25 24 22 21 20 20 22 24 24 24 24 25 27 26 25 26 28 29 28 25 22 20 19 18 19 17 13 10 10 12 11 10 9 8 8 8 9 10 10 11 11 12 13 14 15 15 16 17 18 18 18 19 19 20 20 20 20 21 22 22 22 23 23 23 23 23 23 24 24 24 24 24 23 22 21 22 23 23 23 22 21 20
26 26 25 26 25 23 21 21 22 22 22 22 23 24 24 25 24 24 24 24 25 26 24 21 19 18 18 18 17 14 11 12 12 11 9 9 8 8 8 9 10 11 12 13 13 14 15 16 17 18 19 20 21 21 21 21 22 22 22 22 22 22 22 22 22 24 24 24 23 23 24 25 25 25 25 25 24 22 22 22 22 23 23 22 21
23 24 24 25 23 21 20 20 21 19 17 18 20 22 22 22 22 23 23 22 20 21 21 19 17 17 17 17 16 13 12 12 11 9 9 9 8 9 9 10 11 12 13 14 15 16 17 18 19 20 21 22 23 24 24 25 25 25 25 25 25 25 24 24 23 23 25 26 25 24 24 25 25 26 26 26 25 25 24 23 23 22 22 22 22
24 23 22 22 22 20 18 18 17 16 15 16 17 19 19 20 22 22 23 23 22 20 19 17 16 17 17 15 13 12 12 11 9 9 9 9 9 10 10 11 12 14 15 16 17 18 19 21 22 23 24 24 25 26 27 28 28 28 28 29 29 28 28 27 25 24 23 25 27 27 26 25 26 26 26 27 26 26 26 25 25 24 23 23 23
23 22 21 21 21 20 17 16 17 17 18 18 18 17 17 19 20 21 22 22 21 20 18 16 17 17 16 12 11 11 11 10 10 10 10 10 11 11 12 13 14 16 17 18 19 20 21 23 24 26 27 27 28 28 28 29 30 31 32 32 32 32 31 30 29 28 26 24 26 28 28 28 27 27 27 27 27 27 27 27 27 27 26 25 24
18 19 19 20 20 18 15 14 15 17 19 21 20 18 17 17 18 18 19 18 16 16 15 15 15 15 12 10 11 12 11 11 11 11 11 12 12 13 14 15 16 17 19 20 21 22 24 25 26 28 29 30 30 30 30 31 31 32 32 33 33 33 33 33 32 32 31 28 27 27 29 29 29 30 29 28 28 29 29 28 29 29 28 27 26
13 13 15 17 16 14 11 10 11 14 17 18 19 18 16 16 17 16 17 16 13 12 12 13 13 12 11 12 13 13 12 11 11 11 12 12 13 14 15 16 18 19 20 22 23 24 26 27 28 29 30 31 32 32 32 32 32 32 32 33 33 33 34 35 35 35 35 34 32 30 30 30 29 30 31 31 30 30 30 30 30 30 29 28 28
10 11 13 14 13 12 9 8 10 12 13 14 14 15 14 15 14 13 14 15 12 10 12 12 12 12 13 14 14 13 12 11 11 12 12 13 14 15 17 18 19 21 22 23 25 26 27 28 30 30 31 32 32 33 33 33 33 33 34 34 33 34 34 34 35 36 36 36 35 34 33 32 31 30 31 32 32 32 32 32 32 31 31 30 30
Wind_Direction
327 332 332 333 334 336 339 342 345 348 345 339 334 331 329 325 318 316 317 319 324 331 336 341 344 345 346 349 351 354 358 3 6 8 10 10 11 13 14 14 12 10 8 8 11 20 28 31 29 28 33 41 45 44 41 37 36 37 38 37 35 35 32 31 31 31 37 43 49 53 51 49 48 45 41 40 38 37 33 28 26 19 11 1 356
315 319 320 322 326 329 332 336 340 343 343 338 333 331 329 326 319 315 316 319 325 330 335 340 343 344 346 348 351 354 358 3 6 8 11 12 12 14 15 15 13 12 10 8 8 12 20 27 30 27 25 30 36 37 37 36 34 34 34 34 34 32 31 28 26 25 28 31 35 42 47 49 51 50 47 46 43 38 36 35 32 26 14 5 358
309 310 311 313 317 321 326 330 335 338 340 338 332 329 329 327 320 315 316 320 325 330 334 340 343 343 345 347 350 352 357 2 6 8 11 13 13 14 14 14 13 13 12 11 9 10 14 17 21 25 25 26 29 31 33 33 33 32 31 32 33 32 30 28 26 24 23 23 21 20 25 30 34 39 40 39 38 33 27 26 25 22 13 2 354
307 307 307 307 310 314 319 324 329 334 337 336 332 328 328 326 320 315 316 319 324 329 334 338 341 343 344 347 348 351 354 360 5 8 12 13 14 15 13 11 12 14 13 12 11 12 15 12 10 14 20 23 26 28 30 32 32 30 29 29 30 31 29 29 27 23 22 22 16 12 8 8 7 7 12 16 17 14 7 5 3 357 350 342 328
307 306 305 304 305 307 313 318 325 330 333 334 332 328 327 325 319 315 316 319 323 328 333 337 340 342 344 345 346 349 352 358 2 7 10 12 13 13 13 10 9 10 12 14 13 14 16 13 7 4 7 15 21 25 27 30 31 29 27 27 28 27 26 28 26 21 21 20 17 9 359 358 355 350 352 352 353 353 350 348 344 338 332 322 306
307 304 303 301 301 304 309 314 321 326 330 332 332 328 324 323 318 314 315 317 322 327 332 335 338 340 342 344 345 347 350 355 360 4 7 10 10 10 11 10 6 4 7 12 14 15 16 16 11 5 2 5 13 18 21 26 29 28 26 24 24 24 25 27 25 21 17 19 18 5 358 357 349 347 349 345 346 349 349 344 339 335 326 312 300
304 302 300 299 300 302 306 311 317 322 327 330 330 326 321 321 316 311 312 314 320 325 331 334 336 339 341 342 343 345 348 352 357 1 4 6 7 7 8 9 8 2 1 8 12 15 17 18 15 10 6 5 9 11 15 20 24 25 24 22 21 22 23 25 25 20 18 21 14 7 9 360 349 353 357 352 350 351 349 343 337 332 323 312 303
300 299 297 297 298 299 303 308 315 319 324 327 328 324 319 319 314 308 309 311 317 322 329 332 333 337 339 340 341 343 346 350 354 358 1 2 4 6 6 7 8 6 1 3 9 13 16 19 18 15 12 10 9 8 10 15 20 21 21 21 21 22 22 22 23 20 23 17 360 17 17 358 357 4 2 357 353 350 346 340 335 330 323 317 309
297 294 293 295 295 296 301 308 313 317 321 324 326 322 318 317 310 303 304 309 314 320 327 329 331 334 336 337 338 341 344 347 351 356 359 360 1 3 5 6 7 9 7 4 6 10 14 18 19 18 17 16 13 10 9 12 15 17 18 19 21 21 22 20 17 18 19 9 360 14 9 357 9 6 0 356 349 346 343 339 334 330 324 320 316
291 288 290 292 291 298 303 308 311 314 318 321 323 320 316 314 306 299 301 306 312 319 324 327 328 331 333 334 335 338 340 343 348 353 356 358 359 1 3 5 5 8 10 8 7 8 11 14 17 19 19 19 18 14 10 10 9 10 13 16 18 19 20 18 15 15 11 8 5 2 354 359 10 3 358 352 347 345 341 340 335 331 326 323 320
285 285 288 289 292 299 302 306 308 311 315 318 320 317 312 309 301 295 298 304 311 318 321 324 326 329 329 330 332 334 336 340 345 349 354 356 357 359 2 4 4 5 8 10 9 9 10 11 14 16 18 18 17 16 13 9 5 3 5 9 14 14 15 12 12 12 7 11 3 351 354 357 1 359 357 354 350 347 342 341 336 331 328 325 323
280 283 285 287 293 296 298 303 305 308 311 314 316 313 307 303 297 292 295 301 308 315 318 321 324 325 325 326 328 329 332 337 342 347 351 354 355 358 1 3 4 5 7 10 11 11 10 10 13 14 16 16 14 13 12 10 7 3 359 1 6 8 9 5 6 8 7 11 358 347 352 350 351 351 352 355 352 348 345 341 336 332 329 327 326
276 280 283 287 292 291 294 299 301 304 307 310 312 309 302 298 292 288 292 297 305 311 314 319 320 321 321 322 323 325 328 333 338 343 348 352 355 358 1 3 6 8 9 11 12 13 10 11 14 15 14 14 13 10 9 10 9 7 2 358 358 360 3 1 0 2 5 6 357 348 346 342 342 339 340 344 344 345 344 341 338 333 331 329 328
275 279 282 286 287 288 292 295 297 299 302 306 308 304 296 292 287 284 288 292 301 308 311 315 316 317 317 318 318 320 324 330 335 338 345 349 354 357 0 3 8 10 12 14 14 13 11 12 14 16 14 13 13 11 10 10 10 10 8 5 1 359 358 359 353 353 1 359 354 351 345 341 336 331 330 327 330 335 337 339 337 335 333 330 329
275 278 281 283 284 286 289 291 293 295 298 302 303 299 289 286 283 280 283 289 298 304 308 310 313 313 313 313 313 316 320 327 330 334 341 346 352 356 359 1 5 10 13 15 16 14 11 11 13 13 13 14 15 14 12 10 9 7 8 8 8 5 359 359 349 344 356 354 349 350 347 345 338 333 328 320 321 324 329 334 334 332 330 329 328
273 278 280 280 283 284 286 288 290 292 295 297 298 292 283 281 279 277 280 286 295 301 304 307 310 310 310 311 311 314 317 323 327 330 336 342 349 352 355 357 1 6 10 14 17 17 14 11 7 5 8 14 16 15 13 11 8 4 3 3 5 6 3 3 352 339 346 347 344 346 343 342 338 335 331 325 322 320 323 328 330 329 326 326 326
273 276 277 278 280 282 284 286 287 290 291 292 292 285 277 277 274 274 278 283 291 296 300 304 307 307 308 309 310 312 315 321 325 327 331 337 345 348 350 353 357 3 6 11 17 21 20 14 5 359 360 9 15 13 12 10 8 4 360 358 358 0 359 1 357 340 339 340 339 339 337 337 334 331 328 326 322 317 315 317 323 324 324 323 322
274 273 274 275 277 279 281 283 285 287 287 288 286 277 271 271 269 270 274 279 287 291 296 301 304 307 308 309 310 311 314 320 323 325 327 331 339 345 349 351 354 0 5 9 15 21 23 21 15 9 5 6 10 10 9 10 10 8 4 3 1 360 358 357 356 343 338 338 335 332 331 331 329 327 324 321 316 310 305 303 306 312 317 318 317
272 271 272 273 274 275 277 279 282 282 282 282 277 268 265 266 265 266 269 275 282 287 292 299 304 306 307 309 311 312 314 319 322 322 324 328 333 340 350 353 354 359 6 10 12 18 22 24 24 22 18 10 8 8 10 11 11 10 7 6 4 5 4 1 358 344 340 341 332 327 326 326 326 325 322 319 315 309 302 295 292 295 302 306 309
271 270 271 271 271 272 274 276 277 277 276 273 266 260 260 262 260 261 265 271 277 281 288 296 301 304 305 308 311 312 314 318 321 320 322 326 330 337 347 355 359 1 5 11 12 15 18 21 24 24 20 12 9 9 10 9 6 5 4 3 1 4 5 10 9 349 342 348 337 329 327 324 324 322 321 319 316 312 307 300 292 287 288 292 297
269 268 268 269 269 270 271 272 272 271 269 264 257 254 255 256 256 257 261 266 271 274 282 290 296 300 303 307 311 312 314 318 319 319 322 325 329 335 342 352 2 6 5 8 10 12 14 15 19 20 19 13 10 8 6 4 0 0 2 2 360 1 2 9 23 358 341 350 345 335 330 324 321 318 318 317 315 313 308 304 298 289 282 281 287
267 266 266 266 266 267 267 267 267 264 261 257 251 248 250 249 251 253 257 262 265 269 275 283 291 297 303 309 311 311 314 317 318 319 322 324 327 331 336 345 355 5 7 8 8 9 10 11 14 17 20 16 11 8 6 3 0 360 0 0 358 359 2 5 21 7 343 347 348 339 335 329 324 319 317 316 314 312 308 305 301 295 287 279 280
265 263 262 262 263 263 263 261 260 259 255 249 243 243 245 245 247 250 254 258 260 264 270 279 288 296 305 311 311 311 313 315 317 320 321 322 322 325 329 336 342 351 0 7 8 9 10 11 12 16 22 21 17 13 10 8 2 360 358 357 355 355 359 3 14 10 348 346 348 344 340 334 330 326 323 319 315 311 306 304 301 298 293 284 278
263 260 259 259 259 257 256 255 253 251 245 239 237 240 242 242 245 247 251 253 256 260 265 275 285 296 307 311 310 310 312 313 314 316 316 315 315 315 320 325 331 340 347 355 4 10 13 14 14 17 24 25 22 16 12 9 4 359 355 354 353 353 356 1 9 9 352 344 346 346 344 338 333 328 323 319 316 312 304 298 297 296 293 288 280
261 258 258 255 252 250 248 247 245 240 233 231 234 238 239 240 243 244 247 251 253 256 263 272 282 297 304 304 306 308 310 311 310 310 309 308 307 307 310 317 326 335 340 344 351 1 9 13 16 20 26 27 23 16 9 6 5 1 356 353 352 353 354 356 2 5 352 345 343 341 340 336 331 324 319 317 317 317 309 296 290 291 289 288 283
260 256 253 248 245 244 241 238 234 229 225 227 231 234 237 238 241 243 245 248 250 253 261 270 281 291 293 297 305 308 308 308 308 307 306 304 303 303 304 312 323 329 331 336 341 349 359 7 12 16 20 20 18 14 7 3 3 2 357 353 351 351 351 350 356 359 350 346 344 338 336 334 330 324 318 315 314 317 316 303 287 285 286 284 284
252 248 244 241 240 237 233 228 224 221 221 222 227 231 233 235 238 241 243 247 250 254 259 266 275 281 286 297 307 308 308 309 308 304 301 300 298 299 299 302 313 320 324 330 335 342 352 360 2 1 4 6 7 7 4 1 360 360 357 352 347 345 346 347 353 357 349 344 344 341 340 339 333 328 321 316 314 314 317 311 292 282 283 281 281
242 240 237 235 234 230 224 220 218 218 219 221 226 229 230 234 237 240 244 248 251 252 255 261 268 275 285 296 304 307 309 311 308 301 298 296 294 296 296 295 303 313 321 329 335 343 348 352 352 350 352 353 355 355 354 355 357 359 357 351 345 341 341 342 347 354 350 343 345 345 345 345 342 337 331 322 317 315 315 315 301 280 279 279 277
233 230 229 230 228 223 218 214 213 215 219 222 225 229 231 235 238 241 245 249 251 251 253 257 264 273 284 292 299 304 308 311 308 300 296 293 290 292 294 296 305 316 323 331 338 343 343 344 344 343 344 345 347 347 347 348 350 351 349 348 346 341 337 337 340 346 350 346 345 348 348 348 348 343 339 332 323 319 318 318 307 281 274 279 277
233 228 225 227 224 216 212 208 208 213 218 223 227 231 235 239 241 242 246 248 250 252 254 256 263 271 278 286 294 300 305 308 307 300 293 287 282 285 290 294 305 313 317 326 333 334 335 337 339 339 339 341 342 341 339 340 341 341 341 341 340 338 334 334 336 340 346 348 345 348 348 346 346 343 342 341 333 327 325 325 316 285 269 278 278
237 235 228 227 223 214 209 204 206 213 218 224 228 233 239 243 245 245 246 247 249 253 255 258 262 267 274 282 289 296 301 304 304 298 291 285 282 283 281 287 298 301 306 316 324 326 329 332 335 335 336 335 335 333 332 333 333 333 334 333 333 333 332 334 336 336 339 342 342 343 344 343 344 343 342 344 342 334 329 329 325 295 272 279 282
238 239 234 227 225 219 210 204 208 215 221 225 229 234 239 243 246 247 247 247 251 254 256 258 260 264 271 278 285 291 295 298 299 295 291 287 284 284 278 282 289 292 299 309 316 322 326 329 331 332 331 330 328 328 328 328 328 327 327 326 326 328 330 332 332 332 332 335 338 337 336 337 341 343 339 339 342 340 332 330 330 309 285 285 288
237 238 237 231 229 226 214 208 214 219 224 228 231 235 239 244 246 247 249 249 252 255 258 259 260 264 269 275 282 287 291 292 292 292 289 283 279 277 275 276 277 283 293 301 310 317 322 324 327 329 328 328 327 327 326 325 324 323 322 321 322 323 324 326 327 328 328 329 332 332 330 330 334 339 336 333 337 341 337 331 331 319 298 291 290
239 238 240 237 231 232 232 225 224 225 229 232 233 237 240 244 247 249 252 254 256 259 261 261 262 265 269 274 280 285 288 287 289 287 279 272 268 269 271 274 276 282 290 297 306 313 318 322 324 326 327 327 326 326 325 324 322 320 320 319 320 320 320 322 323 324 326 325 326 327 326 325 327 331 331 330 332 337 338 332 328 321 307 294 291
236 238 239 242 235 238 244 236 233 235 236 238 239 241 243 246 249 251 255 258 261 264 266 265 263 264 266 271 274 278 281 282 284 281 274 269 266 269 273 275 277 282 288 296 304 311 317 320 321 323 325 325 324 325 325 324 323 321 320 319 319 318 318 320 320 321 324 323 323 323 322 321 322 324 325 328 330 331 332 330 324 318 309 298 291
232 232 234 239 236 239 247 246 244 240 239 243 245 246 248 250 251 252 256 258 260 263 265 265 264 263 263 266 269 271 273 275 278 274 271 271 269 271 274 273 274 280 289 297 304 311 316 318 320 321 323 323 323 324 324 323 322 321 319 319 318 317 317 318 318 319 320 320 320 320 320 318 318 321 322 324 325 323 324 326 323 316 310 302 295
232 230 232 233 232 238 253 257 256 253 251 252 251 251 251 252 254 255 258 259 259 260 261 262 263 263 262 266 269 271 273 273 272 268 266 268 267 267 270 273 277 284 293 300 306 312 316 319 320 321 322 322 322 323 323 322 321 319 319 319 318 317 317 317 317 317 317 317 317 318 319 317 317 318 318 319 320 318 317 318 318 315 310 305 299
234 230 230 232 236 242 252 261 264 263 262 260 258 257 255 255 258 258 259 260 261 261 260 262 263 263 264 267 268 270 272 270 268 269 268 265 263 265 270 276 281 288 295 300 306 313 317 318 319 319 318 318 319 321 321 320 319 318 318 318 318 317 317 316 316 316 316 315 315 316 318 317 316 315 314 315 317 316 313 313 314 311 308 307 303
240 234 233 238 243 244 249 257 260 262 264 265 263 261 257 256 258 259 259 260 261 262 262 264 264 264 265 267 270 270 265 263 265 268 268 264 263 267 274 283 289 293 295 300 307 312 315 315 315 315 315 316 317 319 319 319 318 317 317 317 317 316 315 315 314 315 315 315 315 315 316 317 316 315 313 313 315 315 314 313 313 310 307 308 306
244 240 242 248 248 250 256 259 260 264 266 265 266 265 263 259 258 259 258 259 262 264 266 267 265 266 264 265 271 266 251 250 262 263 264 267 271 276 283 290 293 296 300 304 308 310 311 312 312 312 314 316 317 318 319 319 318 316 317 316 316 316 315 314 314 313 314 314 314 314 315 317 316 315 314 314 314 315 314 314 312 311 309 307 306
245 243 246 249 252 258 263 264 264 264 263 265 267 268 268 265 262 261 258 257 260 262 265 266 265 265 260 259 266 257 242 251 269 268 269 274 282 288 288 291 294 300 304 306 308 308 309 309 311 312 314 316 316 318 318 318 318 317 317 316 316 316 314 314 314 314 314 314 313 314 315 316 316 316 316 316 314 312 312 313 313 313 310 306 306
243 244 247 248 256 263 263 266 268 263 262 263 266 268 269 267 265 263 259 257 258 259 260 260 260 258 253 254 260 251 245 267 277 272 275 278 284 286 286 292 297 302 305 306 307 307 308 310 311 312 313 314 315 316 316 316 316 316 316 317 317 317 315 314 315 315 314 315 315 315 315 316 316 315 315 315 314 312 311 312 314 314 312 309 307
247 246 248 249 258 265 265 268 271 267 265 265 266 268 267 265 264 264 263 261 260 260 259 258 255 251 248 250 251 250 258 272 267 266 272 276 280 282 287 296 300 303 304 305 307 308 310 311 311 311 310 310 311 312 312 313 314 314 314 315 316 316 316 315 315 315 314 313 313 312 313 313 314 314 314 315 315 314 313 313 313 313 313 311 309
252 250 248 250 259 267 268 270 271 270 268 266 265 266 266 263 261 263 265 265 261 259 260 258 252 250 250 246 245 253 261 255 253 260 266 269 276 282 291 298 300 302 302 304 306 308 308 309 309 309 308 308 308 308 308 309 311 312 312 312 312 312 313 314 314 313 312 311 311 311 311 311 312 312 313 313 314 314 313 312 312 313 313 312 310
254 251 251 253 260 266 269 271 272 271 268 265 266 269 268 262 260 262 264 265 260 255 254 252 251 252 247 239 240 247 245 240 248 257 261 268 277 284 291 296 298 299 301 303 304 304 304 305 305 304 305 306 306 307 307 308 308 308 308 308 308 308 309 310 310 311 310 310 311 312 311 311 311 311 311 311 312 312 310 309 309 310 311 311 311
251 251 253 256 262 267 270 271 270 268 267 267 269 270 265 258 260 262 258 256 252 246 245 245 242 237 232 232 236 238 238 243 252 258 265 275 281 286 291 293 295 297 299 300 299 299 300 300 301 301 302 303 305 307 307 307 307 306 306 306 306 305 305 305 306 307 308 309 310 311 310 309 309 309 309 309 309 309 308 307 306 306 307 308 308
248 252 253 255 260 263 266 268 266 264 268 271 272 272 267 259 262 264 258 251 245 240 238 233 222 222 232 240 238 239 246 253 259 265 273 280 283 287 290 291 293 293 295 294 294 296 297 298 300 300 301 302 304 305 306 306 307 306 306 306 306 306 305 305 304 303 304 306 307 307 306 305 305 305 305 306 307 307 307 307 306 305 305 304 304
247 253 254 253 254 258 265 270 269 269 270 269 269 272 269 264 266 267 258 248 242 239 234 226 223 235 250 251 242 247 255 260 266 273 279 283 285 288 289 290 290 291 291 292 293 295 296 299 300 300 301 303 304 305 305 307 307 307 307 307 307 306 305 305 304 303 301 301 302 303 303 302 301 301 301 303 304 305 305 305 305 304 304 303 302
248 253 254 251 251 257 267 270 270 269 268 265 263 263 264 264 265 262 254 247 241 234 229 232 240 252 257 249 249 254 259 266 273 277 281 284 287 288 289 289 289 289 290 291 294 296 298 299 300 301 303 305 306 307 307 308 307 307 307 307 306 306 305 305 304 303 301 299 298 297 298 299 299 299 299 300 300 301 302 302 301 301 301 301 300
250 254 253 247 247 252 256 261 269 270 267 264 258 255 257 259 257 252 246 239 228 224 235 247 253 255 252 248 252 256 260 267 272 276 279 282 284 286 286 287 287 288 290 292 295 297 299 301 302 303 305 307 308 309 309 309 308 308 307 306 305 304 304 304 303 302 301 301 300 298 297 296 296 297 297 297 297 297 297 297 297 298 298 298 298
250 253 249 243 241 234 236 265 286 281 270 261 253 248 248 250 243 230 221 217 221 241 255 254 251 249 249 250 253 256 260 264 267 271 275 279 282 284 284 285 286 288 291 294 297 299 301 302 304 305 307 308 309 309 310 310 310 310 308 307 306 305 304 303 302 301 301 301 301 300 299 297 296 295 295 295 295 294 294 293 293 294 294 294 294
Height
5897 5897 5896 5896 5895 5895 5895 5894 5893 5892 5891 5890 5889 5888 5888 5887 5887 5886 5885 5884 5884 5883 5882 5881 5880 5879 5878 5876 5875 5874 5872 5871 5869 5868 5867 5865 5864 5863 5862 5862 5861 5861 5860 5860 5859 5859 5859 5858 5858 5857 5857 5856 5855 5854 5854 5853 5853 5852 5852 5851 5851 5851 5851 5850 5850 5849 5849 5849 5849 5849 5849 5848 5848 5848 5848 5848 5847 5847 5847 5847 5846 5846 5846 5846 5846
5897 5896 5896 5895 5895 5894 5894 5893 5893 5891 5891 5890 5889 5888 5887 5887 5886 5886 5885 5884 5884 5883 5882 5881 5880 5879 5878 5876 5875 5874 5873 5871 5870 5868 5867 5866 5864 5864 5863 5862 5862 5861 5860 5860 5859 5859 5859 5858 5858 5857 5857 5856 5855 5854 5854 5853 5853 5852 5852 5851 5851 5851 5850 5850 5850 5850 5850 5849 5849 5849 5849 5849 5849 5848 5848 5848 5848 5847 5847 5847 5846 5846 5846 5846 5846
5896 5896 5895 5895 5894 5894 5893 5893 5892 5891 5890 5889 5889 5888 5887 5886 5886 5885 5884 5884 5884 5883 5882 5881 5880 5879 5878 5877 5875 5874 5873 5872 5870 5869 5867 5866 5865 5864 5863 5863 5862 5861 5861 5860 5860 5859 5859 5858 5857 5857 5857 5856 5855 5855 5854 5853 5853 5852 5852 5851 5851 5851 5850 5850 5850 5850 5850 5850 5850 5850 5850 5849 5849 5849 5848 5848 5848 5847 5847 5847 5846 5846 5846 5846 5845
5895 5895 5895 5894 5893 5893 5893 5892 5892 5891 5890 5889 5888 5887 5886 5886 5885 5885 5884 5884 5883 5883 5882 5881 5880 5879 5878 5877 5876 5874 5873 5872 5870 5869 5868 5866 5865 5864 5863 5863 5862 5861 5861 5860 5860 5859 5858 5858 5857 5857 5856 5856 5855 5855 5854 5853 5853 5852 5852 5851 5851 5851 5851 5850 5850 5850 5850 5850 5850 5850 5850 5850 5849 5849 5849 5848 5848 5848 5847 5847 5846 5846 5845 5845 5845
5894 5894 5893 5893 5892 5892 5892 5891 5891 5890 5889 5888 5887 5886 5886 5885 5885 5884 5884 5883 5883 5882 5882 5881 5880 5879 5878 5877 5876 5874 5873 5872 5871 5869 5868 5867 5865 5864 5863 5863 5862 5861 5861 5860 5860 5859 5858 5858 5857 5857 5856 5856 5855 5855 5854 5854 5853 5852 5852 5852 5851 5851 5851 5850 5850 5850 5850 5850 5850 5850 5850 5850 5850 5849 5849 5849 5848 5848 5847 5847 5846 5846 5845 5845 5845
5893 5892 5892 5892 5891 5891 5891 5890 5890 5889 5888 5887 5887 5886 5885 5885 5884 5884 5883 5883 5883 5882 5881 5880 5879 5879 5878 5877 5875 5874 5873 5872 5871 5869 5868 5866 5865 5864 5863 5863 5862 5861 5860 5860 5859 5859 5858 5858 5857 5856 5856 5856 5856 5855 5855 5854 5853 5852 5852 5852 5851 5851 5851 5851 5850 5850 5850 5850 5850 5850 5850 5850 5850 5849 5849 5849 5848 5848 5847 5847 5846 5845 5845 5845 5844
5891 5891 5891 5890 5890 5890 5889 5889 5889 5888 5887 5887 5886 5885 5885 5885 5884 5884 5883 5883 5882 5882 5881 5880 5879 5878 5877 5876 5875 5874 5873 5872 5871 5869 5868 5866 5865 5864 5863 5862 5861 5861 5860 5860 5859 5859 5858 5857 5857 5856 5856 5856 5855 5855 5855 5854 5853 5853 5852 5852 5851 5851 5851 5850 5850 5850 5850 5850 5850 5849 5849 5849 5850 5849 5849 5848 5848 5847 5847 5846 5846 5845 5845 5844 5844
5890 5890 5890 5889 5889 5888 5888 5888 5887 5887 5886 5886 5885 5885 5884 5884 5884 5883 5883 5882 5882 5881 5880 5880 5879 5878 5877 5876 5875 5874 5873 5872 5870 5869 5868 5866 5865 5864 5863 5862 5861 5860 5860 5859 5859 5858 5858 5857 5857 5856 5856 5856 5855 5855 5855 5854 5854 5853 5852 5852 5852 5851 5851 5850 5850 5850 5850 5850 5849 5849 5849 5849 5849 5848 5848 5848 5848 5847 5847 5846 5846 5845 5845 5844 5844
5889 5888 5888 5888 5888 5887 5887 5887 5886 5886 5885 5885 5884 5884 5884 5883 5883 5882 5882 5882 5881 5881 5880 5879 5878 5878 5877 5876 5875 5874 5873 5871 5870 5869 5867 5866 5865 5864 5863 5862 5861 5860 5859 5859 5858 5858 5857 5857 5856 5856 5856 5856 5855 5855 5855 5854 5854 5853 5853 5852 5852 5851 5851 5850 5850 5850 5849 5849 5849 5849 5849 5849 5848 5848 5848 5848 5847 5847 5846 5846 5845 5845 5844 5844 5843
5888 5887 5887 5886 5886 5886 5886 5885 5885 5885 5884 5884 5883 5883 5883 5882 5882 5882 5881 5881 5881 5880 5879 5878 5878 5877 5876 5875 5874 5873 5872 5871 5870 5868 5867 5866 5865 5864 5863 5862 5861 5860 5859 5858 5858 5857 5857 5856 5856 5856 5856 5855 5855 5855 5854 5854 5853 5853 5852 5852 5852 5851 5851 5850 5850 5850 5849 5849 5849 5849 5849 5848 5848 5848 5847 5847 5847 5846 5846 5845 5845 5844 5844 5843 5843
5886 5885 5885 5885 5885 5885 5884 5884 5884 5883 5883 5883 5882 5882 5882 5882 5881 5881 5881 5880 5880 5879 5879 5878 5877 5876 5876 5875 5874 5873 5872 5870 5869 5868 5867 5866 5864 5863 5862 5861 5860 5860 5859 5858 5857 5857 5856 5856 5856 5856 5855 5855 5855 5854 5854 5853 5853 5853 5852 5852 5852 5851 5851 5850 5850 5849 5849 5849 5849 5849 5848 5848 5848 5847 5847 5847 5846 5846 5845 5845 5844 5844 5843 5842 5842
5884 5884 5884 5883 5883 5883 5883 5883 5883 5882 5882 5882 5881 5881 5881 5881 5880 5880 5880 5880 5879 5879 5878 5877 5876 5876 5875 5874 5873 5872 5871 5870 5869 5868 5867 5865 5864 5863 5862 5861 5860 5859 5858 5858 5857 5856 5856 5856 5855 5855 5855 5855 5855 5854 5854 5853 5853 5852 5852 5852 5851 5851 5851 5850 5849 5849 5848 5848 5848 5848 5847 5847 5847 5847 5846 5846 5846 5845 5845 5844 5843 5843 5842 5842 5841
5883 5883 5882 5882 5882 5882 5882 5882 5881 5881 5880 5880 5880 5880 5880 5879 5879 5879 5879 5879 5879 5878 5877 5877 5876 5875 5874 5873 5873 5872 5871 5869 5868 5867 5866 5865 5864 5863 5862 5861 5860 5859 5858 5857 5857 5856 5856 5856 5855 5855 5855 5855 5854 5854 5854 5853 5853 5852 5852 5851 5851 5851 5851 5850 5849 5849 5848 5848 5848 5847 5847 5846 5846 5846 5846 5845 5845 5844 5844 5843 5843 5842 5842 5841 5841
5881 5881 5880 5880 5880 5880 5880 5880 5880 5879 5879 5879 5879 5879 5878 5878 5878 5878 5878 5878 5878 5877 5876 5876 5875 5874 5873 5873 5872 5871 5870 5869 5868 5867 5866 5865 5864 5863 5862 5861 5860 5859 5858 5857 5857 5856 5856 5855 5855 5855 5855 5854 5854 5854 5853 5853 5853 5852 5852 5851 5851 5850 5850 5850 5849 5848 5848 5847 5847 5847 5846 5846 5845 5845 5845 5844 5844 5844 5843 5843 5842 5842 5841 5840 5840
5879 5878 5879 5879 5878 5878 5878 5878 5878 5878 5878 5878 5878 5877 5877 5877 5877 5877 5877 5877 5877 5876 5875 5875 5874 5873 5873 5872 5871 5870 5869 5868 5867 5866 5866 5865 5864 5863 5862 5861 5860 5859 5858 5857 5857 5856 5856 5855 5855 5855 5854 5854 5854 5854 5853 5853 5852 5852 5851 5851 5851 5850 5850 5849 5848 5847 5847 5847 5846 5846 5846 5845 5845 5844 5844 5844 5843 5843 5843 5842 5841 5841 5840 5840 5839
5877 5876 5876 5876 5876 5876 5876 5876 5876 5876 5876 5876 5876 5876 5876 5876 5876 5876 5876 5876 5876 5875 5875 5874 5873 5873 5872 5871 5870 5870 5868 5868 5867 5866 5865 5865 5864 5863 5862 5861 5860 5859 5858 5858 5857 5856 5856 5855 5855 5855 5854 5854 5854 5853 5853 5853 5852 5852 5851 5851 5850 5850 5849 5849 5848 5846 5846 5846 5845 5845 5845 5844 5844 5843 5843 5842 5842 5842 5841 5841 5841 5840 5839 5839 5838
5874 5874 5873 5873 5873 5873 5873 5874 5874 5874 5874 5874 5874 5874 5874 5875 5875 5875 5875 5875 5875 5874 5874 5873 5873 5872 5871 5870 5870 5869 5868 5867 5866 5865 5865 5864 5864 5863 5862 5861 5860 5859 5859 5858 5857 5856 5856 5855 5855 5854 5854 5854 5853 5853 5853 5853 5852 5851 5851 5850 5850 5849 5848 5848 5847 5846 5845 5845 5845 5844 5844 5843 5843 5842 5842 5841 5841 5840 5840 5840 5839 5839 5838 5838 5837
5871 5871 5870 5871 5871 5870 5871 5871 5872 5872 5872 5872 5872 5872 5873 5873 5874 5874 5874 5873 5873 5873 5873 5872 5872 5871 5870 5870 5869 5868 5867 5867 5866 5865 5864 5864 5864 5863 5862 5861 5860 5859 5859 5858 5857 5856 5856 5855 5855 5854 5854 5853 5853 5853 5852 5852 5852 5851 5850 5850 5849 5849 5848 5847 5847 5846 5845 5845 5844 5844 5843 5843 5842 5842 5841 5840 5840 5839 5839 5838 5838 5838 5837 5837 5836
5867 5866 5867 5867 5868 5868 5868 5869 5869 5870 5870 5870 5870 5871 5871 5872 5872 5873 5872 5872 5872 5872 5872 5872 5871 5870 5869 5869 5868 5868 5867 5866 5866 5865 5864 5864 5863 5863 5863 5862 5860 5859 5859 5858 5857 5856 5855 5855 5854 5853 5853 5853 5852 5852 5852 5851 5851 5850 5850 5849 5849 5848 5847 5846 5846 5845 5845 5844 5843 5843 5843 5842 5842 5841 5840 5839 5839 5838 5837 5837 5837 5836 5836 5836 5835
5862 5862 5863 5863 5864 5865 5866 5866 5867 5867 5868 5868 5868 5869 5870 5870 5871 5871 5871 5871 5871 5871 5871 5871 5870 5869 5868 5868 5868 5867 5867 5866 5865 5864 5864 5863 5863 5863 5863 5862 5861 5860 5858 5857 5856 5856 5855 5854 5854 5853 5852 5852 5852 5851 5851 5851 5850 5850 5849 5848 5848 5847 5847 5846 5845 5843 5843 5843 5843 5842 5842 5841 5841 5840 5839 5839 5838 5837 5836 5836 5835 5835 5835 5834 5834
5858 5858 5859 5859 5860 5862 5863 5864 5864 5865 5865 5865 5866 5867 5868 5869 5869 5869 5869 5869 5869 5869 5870 5869 5869 5868 5868 5867 5867 5867 5866 5866 5865 5864 5863 5863 5862 5862 5862 5862 5861 5860 5859 5857 5856 5855 5854 5854 5853 5852 5852 5852 5851 5851 5850 5850 5849 5849 5848 5848 5847 5846 5846 5845 5845 5843 5842 5842 5842 5841 5841 5840 5839 5839 5838 5838 5837 5836 5836 5835 5834 5834 5833 5833 5833
5854 5855 5856 5856 5858 5859 5860 5861 5861 5862 5862 5863 5864 5865 5866 5866 5867 5867 5867 5868 5867 5868 5868 5868 5867 5867 5867 5867 5866 5866 5866 5865 5865 5864 5863 5862 5861 5861 5861 5861 5861 5860 5859 5858 5856 5855 5854 5853 5853 5852 5852 5851 5851 5850 5850 5849 5849 5848 5847 5847 5846 5845 5845 5844 5844 5843 5841 5841 5840 5840 5839 5838 5838 5837 5837 5836 5836 5835 5834 5834 5833 5832 5832 5831 5831
5852 5852 5852 5854 5855 5857 5857 5858 5858 5859 5860 5860 5861 5862 5863 5864 5865 5865 5866 5866 5866 5866 5866 5866 5866 5866 5866 5866 5866 5865 5865 5865 5864 5863 5862 5861 5860 5860 5860 5860 5859 5859 5859 5858 5857 5855 5854 5853 5852 5852 5851 5851 5850 5850 5849 5849 5848 5847 5846 5846 5845 5844 5844 5843 5843 5842 5841 5840 5839 5838 5838 5837 5836 5836 5835 5835 5834 5833 5833 5832 5831 5831 5830 5830 5829
5849 5849 5850 5852 5853 5853 5854 5854 5855 5856 5857 5858 5859 5860 5861 5862 5863 5864 5864 5864 5864 5864 5865 5865 5865 5866 5866 5866 5865 5865 5865 5864 5863 5862 5861 5860 5859 5859 5858 5858 5858 5858 5858 5857 5857 5856 5855 5854 5853 5852 5851 5851 5850 5849 5849 5848 5847 5846 5846 5845 5844 5843 5843 5842 5842 5841 5840 5839 5838 5837 5836 5836 5835 5834 5834 5833 5832 5832 5831 5830 5830 5829 5829 5828 5828
5847 5847 5847 5849 5849 5849 5850 5850 5851 5852 5853 5855 5856 5858 5859 5860 5861 5861 5862 5862 5863 5863 5863 5864 5864 5865 5865 5865 5865 5864 5864 5863 5862 5861 5860 5860 5859 5858 5858 5857 5857 5856 5856 5856 5856 5855 5854 5854 5853 5852 5852 5851 5850 5849 5848 5848 5847 5846 5845 5844 5844 5843 5842 5842 5841 5841 5839 5838 5837 5836 5835 5834 5834 5833 5832 5831 5830 5830 5829 5828 5828 5827 5827 5826 5826
5846 5845 5845 5846 5845 5846 5846 5847 5848 5849 5851 5852 5854 5855 5856 5858 5858 5859 5860 5860 5861 5861 5862 5862 5863 5864 5864 5864 5865 5864 5863 5862 5861 5860 5859 5859 5859 5858 5857 5856 5856 5855 5855 5855 5854 5854 5854 5853 5853 5852 5852 5851 5850 5850 5848 5847 5846 5845 5844 5844 5843 5842 5842 5841 5840 5840 5838 5837 5836 5835 5834 5833 5832 5831 5830 5829 5828 5827 5827 5826 5826 5826 5825 5824 5824
5844 5843 5843 5843 5843 5843 5844 5845 5846 5847 5848 5850 5852 5853 5854 5855 5856 5857 5858 5858 5859 5860 5860 5861 5862 5863 5863 5863 5863 5863 5862 5861 5860 5859 5859 5858 5858 5858 5857 5856 5855 5855 5854 5854 5853 5853 5853 5852 5852 5851 5851 5850 5850 5849 5848 5847 5846 5845 5843 5843 5842 5842 5841 5840 5839 5838 5837 5836 5835 5833 5832 5831 5830 5829 5828 5827 5826 5825 5824 5824 5824 5824 5823 5823 5822
5840 5841 5841 5841 5841 5841 5842 5843 5844 5845 5847 5848 5850 5851 5852 5852 5854 5856 5856 5857 5858 5858 5859 5859 5860 5861 5862 5862 5862 5862 5861 5861 5860 5859 5858 5858 5857 5857 5856 5855 5855 5854 5853 5853 5852 5852 5851 5851 5851 5850 5850 5849 5849 5848 5847 5847 5846 5844 5844 5843 5842 5841 5840 5839 5838 5838 5836 5834 5833 5832 5831 5830 5829 5827 5826 5825 5824 5823 5823 5822 5821 5821 5821 5821 5820
5837 5837 5838 5837 5838 5837 5838 5840 5842 5844 5845 5847 5848 5849 5850 5851 5853 5854 5855 5856 5856 5857 5857 5858 5859 5860 5860 5861 5861 5861 5860 5860 5859 5858 5858 5857 5856 5856 5855 5854 5854 5853 5853 5852 5851 5851 5851 5850 5850 5849 5848 5848 5847 5846 5845 5845 5844 5843 5843 5843 5842 5841 5839 5838 5837 5837 5835 5833 5832 5831 5829 5828 5827 5826 5825 5824 5822 5822 5821 5820 5819 5819 5819 5819 5818
5837 5835 5834 5834 5835 5835 5836 5839 5842 5843 5844 5845 5846 5847 5849 5850 5852 5853 5853 5854 5854 5855 5856 5857 5858 5859 5859 5859 5859 5859 5859 5858 5858 5857 5857 5856 5856 5856 5855 5854 5853 5853 5852 5852 5851 5851 5850 5850 5849 5848 5847 5846 5845 5845 5844 5843 5843 5842 5842 5841 5840 5840 5839 5838 5836 5835 5834 5833 5831 5829 5828 5827 5825 5824 5823 5822 5821 5820 5819 5818 5817 5817 5817 5817 5816
5838 5836 5835 5834 5835 5836 5836 5838 5841 5842 5843 5844 5845 5847 5849 5849 5850 5851 5852 5852 5853 5854 5855 5856 5856 5857 5857 5858 5858 5858 5857 5857 5856 5856 5855 5855 5855 5855 5855 5854 5853 5853 5852 5852 5851 5851 5850 5849 5848 5847 5846 5845 5845 5844 5843 5842 5841 5841 5840 5840 5839 5838 5837 5836 5834 5833 5832 5831 5830 5828 5827 5826 5824 5823 5822 5821 5820 5819 5818 5816 5815 5815 5815 5815 5815
5837 5835 5835 5835 5835 5837 5837 5838 5840 5841 5841 5842 5845 5847 5848 5848 5849 5849 5850 5850 5851 5852 5853 5854 5854 5855 5856 5856 5857 5856 5856 5855 5854 5854 5854 5854 5854 5854 5853 5853 5852 5852 5852 5851 5851 5850 5849 5848 5847 5846 5845 5845 5844 5843 5842 5841 5840 5839 5838 5838 5837 5837 5836 5834 5833 5831 5830 5830 5829 5827 5825 5824 5823 5822 5821 5820 5819 5818 5816 5815 5814 5814 5814 5814 5814
5835 5834 5834 5835 5836 5837 5837 5836 5838 5840 5840 5842 5844 5845 5846 5847 5847 5847 5848 5849 5850 5850 5851 5851 5852 5853 5854 5855 5855 5855 5855 5854 5853 5852 5852 5852 5852 5852 5852 5852 5852 5852 5852 5851 5850 5849 5848 5847 5846 5845 5845 5844 5843 5842 5841 5840 5839 5838 5837 5836 5835 5834 5834 5833 5831 5830 5828 5827 5827 5825 5823 5822 5821 5820 5819 5818 5818 5816 5815 5813 5812 5812 5812 5812 5812
5832 5833 5834 5836 5837 5837 5836 5836 5837 5838 5839 5841 5842 5843 5844 5845 5845 5846 5847 5848 5849 5849 5849 5850 5851 5852 5853 5854 5854 5854 5853 5852 5852 5851 5851 5851 5851 5851 5851 5851 5851 5852 5851 5850 5849 5848 5847 5846 5845 5845 5844 5843 5842 5841 5840 5839 5838 5837 5836 5834 5833 5832 5831 5830 5829 5829 5827 5825 5824 5823 5822 5821 5819 5818 5817 5816 5815 5815 5813 5812 5811 5810 5809 5810 5810
5830 5832 5834 5835 5836 5836 5835 5835 5836 5837 5839 5840 5840 5841 5842 5843 5844 5845 5846 5847 5848 5848 5848 5849 5850 5851 5851 5851 5851 5851 5851 5850 5850 5850 5849 5850 5850 5850 5850 5850 5851 5851 5850 5849 5848 5847 5846 5845 5844 5844 5843 5842 5841 5840 5839 5838 5836 5835 5834 5833 5832 5830 5829 5828 5827 5826 5825 5824 5823 5822 5820 5819 5818 5817 5816 5815 5814 5813 5812 5811 5809 5808 5807 5807 5807
5826 5828 5831 5833 5833 5833 5833 5835 5835 5837 5838 5838 5839 5840 5840 5841 5842 5843 5844 5845 5846 5847 5847 5847 5848 5848 5848 5848 5847 5847 5848 5849 5849 5848 5848 5848 5848 5849 5849 5850 5850 5850 5849 5848 5847 5846 5845 5844 5843 5842 5841 5840 5840 5839 5838 5836 5835 5834 5833 5831 5830 5829 5827 5826 5825 5824 5823 5822 5821 5820 5819 5818 5816 5815 5814 5813 5812 5811 5810 5809 5808 5807 5805 5804 5804
5823 5824 5828 5828 5828 5829 5832 5834 5835 5836 5837 5838 5838 5838 5839 5840 5840 5842 5844 5844 5845 5845 5845 5845 5846 5846 5846 5846 5846 5845 5847 5849 5849 5847 5846 5846 5847 5848 5848 5849 5848 5848 5847 5846 5845 5844 5843 5843 5842 5841 5840 5839 5838 5837 5836 5835 5834 5832 5831 5830 5829 5827 5826 5824 5823 5822 5820 5820 5819 5818 5817 5816 5815 5814 5812 5811 5809 5808 5808 5807 5806 5805 5804 5803 5802
5823 5823 5824 5824 5825 5828 5831 5832 5834 5835 5836 5836 5836 5837 5838 5838 5838 5841 5843 5842 5843 5843 5843 5844 5844 5844 5844 5845 5845 5845 5847 5848 5848 5847 5846 5846 5846 5846 5847 5847 5847 5846 5845 5845 5844 5843 5842 5841 5841 5840 5839 5838 5837 5836 5835 5834 5833 5831 5830 5829 5827 5826 5824 5823 5821 5820 5819 5818 5816 5816 5815 5814 5813 5812 5810 5808 5807 5806 5805 5805 5804 5803 5802 5802 5801
5821 5822 5822 5823 5826 5828 5829 5830 5831 5833 5834 5834 5834 5835 5836 5836 5836 5838 5840 5840 5841 5841 5841 5842 5843 5843 5844 5844 5844 5844 5845 5846 5847 5846 5845 5845 5845 5844 5845 5845 5844 5844 5844 5843 5842 5841 5841 5840 5839 5839 5838 5837 5836 5835 5834 5833 5832 5830 5829 5828 5826 5825 5823 5822 5820 5819 5817 5816 5814 5813 5812 5812 5812 5810 5809 5807 5805 5804 5803 5803 5802 5801 5801 5800 5799
5819 5820 5822 5824 5826 5827 5827 5828 5829 5831 5832 5832 5833 5833 5835 5835 5834 5836 5837 5838 5839 5840 5840 5841 5842 5842 5842 5842 5842 5842 5843 5845 5846 5845 5844 5843 5843 5843 5843 5842 5842 5842 5842 5841 5841 5840 5840 5839 5838 5837 5836 5835 5834 5833 5832 5831 5830 5829 5828 5827 5825 5824 5822 5820 5819 5817 5816 5814 5813 5811 5810 5810 5809 5808 5807 5805 5803 5802 5801 5800 5800 5799 5799 5798 5797
5817 5819 5821 5823 5824 5826 5826 5827 5828 5829 5830 5830 5831 5832 5834 5834 5833 5834 5835 5835 5837 5837 5838 5839 5839 5840 5840 5840 5841 5842 5843 5843 5842 5843 5843 5842 5841 5841 5841 5841 5841 5841 5840 5840 5839 5839 5838 5837 5837 5836 5835 5834 5833 5832 5830 5830 5828 5827 5826 5825 5824 5822 5820 5819 5817 5816 5814 5813 5811 5810 5809 5808 5807 5806 5805 5803 5801 5800 5799 5798 5797 5797 5797 5795 5794
5815 5817 5819 5820 5822 5824 5825 5825 5826 5826 5827 5828 5829 5831 5832 5832 5832 5833 5833 5834 5835 5835 5836 5836 5837 5838 5839 5839 5840 5840 5840 5840 5840 5841 5841 5840 5840 5840 5839 5839 5839 5839 5839 5838 5838 5837 5836 5836 5835 5834 5833 5832 5831 5830 5829 5828 5827 5826 5824 5823 5822 5821 5819 5817 5815 5814 5812 5811 5809 5807 5806 5805 5805 5804 5803 5802 5799 5798 5797 5795 5795 5795 5794 5793 5791
5813 5814 5816 5818 5819 5821 5822 5823 5823 5823 5824 5825 5827 5829 5829 5829 5831 5831 5831 5832 5833 5834 5834 5835 5836 5836 5837 5838 5838 5838 5837 5838 5840 5841 5840 5839 5839 5838 5838 5838 5838 5838 5837 5837 5836 5835 5835 5834 5833 5833 5832 5830 5829 5828 5827 5826 5825 5824 5823 5822 5820 5819 5817 5815 5814 5812 5811 5809 5808 5806 5805 5803 5802 5802 5801 5800 5798 5796 5795 5793 5792 5792 5791 5790 5789
5811 5812 5814 5815 5817 5818 5820 5821 5821 5821 5821 5822 5824 5825 5826 5827 5828 5828 5829 5829 5831 5832 5833 5833 5834 5835 5836 5836 5837 5837 5838 5839 5840 5840 5839 5838 5837 5836 5836 5836 5836 5836 5835 5835 5834 5834 5833 5832 5832 5831 5830 5828 5827 5826 5825 5824 5823 5822 5821 5820 5819 5817 5816 5814 5812 5810 5809 5808 5806 5805 5803 5801 5800 5799 5798 5797 5796 5795 5793 5791 5790 5789 5788 5787 5786
5809 5810 5812 5813 5815 5816 5817 5818 5818 5818 5818 5819 5821 5822 5823 5824 5825 5826 5826 5827 5828 5830 5831 5832 5832 5833 5834 5835 5837 5838 5838 5839 5839 5838 5837 5836 5835 5835 5834 5834 5834 5834 5834 5833 5833 5832 5832 5831 5830 5829 5828 5827 5825 5824 5823 5822 5821 5819 5818 5817 5816 5815 5814 5813 5811 5808 5807 5805 5804 5803 5801 5799 5798 5796 5795 5794 5793 5793 5791 5790 5788 5787 5786 5784 5784
5807 5808 5810 5812 5813 5814 5815 5815 5815 5816 5816 5817 5818 5818 5820 5821 5823 5824 5825 5826 5827 5828 5829 5830 5831 5832 5833 5835 5836 5836 5837 5836 5836 5835 5834 5833 5833 5833 5832 5832 5832 5832 5832 5831 5831 5830 5830 5829 5829 5827 5826 5825 5823 5822 5820 5819 5818 5817 5816 5814 5814 5813 5811 5811 5810 5807 5804 5802 5802 5801 5799 5797 5795 5794 5793 5791 5790 5789 5789 5788 5786 5785 5784 5783 5781
5804 5806 5808 5810 5811 5812 5813 5813 5813 5814 5814 5815 5816 5816 5817 5819 5821 5822 5823 5825 5826 5827 5828 5829 5831 5832 5833 5833 5833 5833 5833 5833 5832 5832 5832 5832 5831 5831 5831 5831 5830 5830 5830 5830 5829 5829 5828 5827 5827 5825 5824 5823 5822 5820 5818 5816 5815 5814 5813 5812 5810 5809 5808 5807 5807 5806 5804 5801 5798 5797 5797 5795 5794 5792 5790 5789 5788 5786 5785 5784 5783 5782 5781 5781 5779
5802 5803 5806 5808 5809 5810 5811 5811 5811 5812 5812 5813 5814 5814 5815 5816 5817 5819 5821 5823 5825 5826 5827 5829 5830 5831 5831 5830 5830 5830 5830 5830 5830 5830 5830 5830 5830 5829 5829 5829 5829 5828 5828 5828 5827 5827 5826 5825 5824 5823 5822 5821 5819 5818 5816 5814 5813 5811 5810 5808 5807 5806 5804 5803 5803 5802 5801 5800 5798 5795 5793 5793 5791 5789 5788 5786 5785 5783 5782 5781 5779 5778 5778 5777 5776
5800 5801 5803 5805 5807 5808 5809 5810 5809 5809 5810 5811 5812 5813 5813 5814 5815 5816 5819 5821 5823 5824 5825 5827 5828 5828 5828 5828 5828 5828 5828 5828 5828 5828 5829 5828 5828 5827 5827 5827 5827 5826 5826 5826 5825 5825 5824 5823 5822 5820 5819 5818 5816 5815 5814 5812 5811 5809 5807 5805 5804 5802 5801 5800 5799 5797 5797 5797 5796 5794 5792 5790 5788 5786 5784 5784 5782 5780 5779 5777 5776 5775 5774 5774 5772
5799 5800 5801 5803 5805 5806 5807 5807 5808 5808 5808 5808 5809 5811 5811 5811 5813 5815 5817 5819 5820 5822 5823 5824 5825 5825 5826 5826 5827 5826 5826 5827 5827 5827 5827 5826 5826 5826 5825 5825 5825 5824 5824 5823 5823 5822 5821 5820 5818 5817 5816 5814 5813 5812 5810 5809 5807 5806 5805 5803 5801 5800 5798 5796 5795 5793 5792 5791 5791 5791 5789 5788 5786 5783 5781 5780 5779 5777 5776 5774 5773 5771 5770 5769 5768
5798 5799 5800 5801 5803 5804 5805 5805 5806 5806 5806 5806 5807 5808 5809 5810 5811 5813 5815 5817 5819 5821 5822 5822 5823 5824 5825 5825 5825 5825 5825 5825 5825 5825 5825 5824 5824 5824 5823 5823 5823 5822 5822 5821 5820 5819 5818 5817 5815 5814 5813 5811 5809 5808 5807 5805 5804 5802 5801 5800 5798 5797 5795 5794 5792 5790 5788 5787 5786 5785 5784 5783 5782 5781 5778 5776 5775 5773 5772 5770 5769 5768 5766 5764 5763